Terug naar catalogus

DELTA 1 DEB

ActiefUNKNOWN
NORAD 25270·DEBRIS·🇺🇸 United States

Gelanceerd Jul 4, 1968 vanaf Vandenberg Space Force Base

Loading…

Volgende Passages (komende 24 uur)

TLE

VersSource: Space-Track

Epoch: Sep 6, 2026, 15:40 UTC

1 25270U 68055E   26249.65332789  .00001128  00000-0  20326-2 0  9993
2 25270 120.5294 157.5829 2229414 358.6782   0.8874 10.04720668453093

Volg DELTA 1 DEB in realtime met AllMySat

Download on the App Store